[[{"header":{"parameterUnit":"m.s-1","parameterCategory":1,"la1":30.2991,"la2":30.254,"lo1":-89.0895,"lo2":-89.0444,"dy":0.0017,"dx":0.0017,"nx":28,"ny":28,"refTime":"2026-02-16T09:00:00:Z","depth":0,"parameterNumber":2,"parameterNumberName":"U-component_of_WINDS"},"data":[0,0,0,0,0,0,0,0,0,0,0,0,0,0,0,0,0,0,0,0,0,0,0,0,0,0,0,0,0,0,0,0,0,0,0,0,0,0,0,0,0,0,0,0,0,0,0,0,0,0,0,0,0,0,0,0,0,0,0.2982,0.2981,0,0.2912,0.2911,0.291,0.2876,0.2876,0.2876,0.2876,0.2798,0.2796,0.2794,0,0,0,0,0,0,0,0,0,0,0,0,0,0.3081,0.3079,0.2982,0.2981,0.298,0.2912,0.2911,0.291,0.2876,0.2876,0.2876,0.2876,0.2799,0.2796,0.2794,0,0,0,0,0,0,0,0,0,0,0,0,0,0.3027,0.3079,0.2982,0.2955,0.2952,0.2912,0.2911,0.2909,0.2876,0.2876,0.2876,0.2876,0.2799,0.2796,0.2793,0.2772,0,0,0.2783,0.2782,0,0,0,0,0,0,0,0,0.303,0.3023,0.296,0.2957,0.2953,0.2903,0.2917,0.2863,0.2876,0.2905,0.2876,0.2876,0.2832,0.2826,0.2813,0.2769,0.2765,0.2783,0.2781,0.278,0.2779,0,0,0,0,0,0,0,0.3034,0.3026,0.2954,0.2959,0.2955,0.2945,0.2937,0.2906,0.2869,0.2902,0.29,0.2892,0.283,0.2816,0.2811,0.2764,0.2783,0.278,0.2779,0.2777,0.2698,0.2698,0,0,0,0,0,0,0.3043,0.3029,0.2956,0.2952,0.2993,0.2943,0.2934,0.2919,0.2869,0.2862,0.2892,0.2891,0.2821,0.2815,0.2808,0.278,0.278,0.2777,0.2775,0.2698,0.2698,0.2698,0,0,0,0,0,0,0.3045,0.3036,0.2959,0.299,0.2979,0.2941,0.2924,0.2917,0.2903,0.2862,0.2854,0.2885,0.2821,0.2812,0.2782,0.2777,0.2776,0.2773,0.2699,0.2698,0.2698,0.2724,0,0,0,0,0,0,0.3048,0.3037,0.3031,0.299,0.2978,0.2936,0.2924,0.2916,0.2898,0.2896,0.2853,0.2845,0.2821,0.2787,0.2779,0.2772,0.277,0.2699,0.2699,0.2698,0.2723,0.2725,0.2726,0,0,0,0,0,0.3052,0.3039,0.303,0.3022,0.2969,0.2936,0.2928,0.2902,0.2898,0.289,0.2863,0.2847,0.2779,0.2784,0.2774,0.2767,0.2699,0.2699,0.2698,0.2723,0.2724,0.2726,0,0,0,0,0,0,0.3078,0.3034,0.3023,0.2998,0.2971,0.293,0.2919,0.2904,0.2876,0.2875,0.2841,0.2832,0.2804,0.2782,0.2789,0.2744,0.2737,0.2735,0.2759,0.276,0.2761,0.2767,0.2768,0,0,0,0,0,0.3082,0.3061,0.3022,0.3003,0.2991,0.2957,0.2942,0.2924,0.2894,0.2882,0.2853,0.2822,0.2794,0.2776,0.2747,0.272,0.2709,0.271,0.2711,0.2713,0.2711,0.2694,0.2693,0.2697,0.2697,0.2697,0,0,0.3088,0.3061,0.3049,0.3008,0.2985,0.2962,0.2948,0.2924,0.2906,0.2877,0.2847,0.2825,0.2788,0.2759,0.2745,0.274,0.2708,0.2712,0.2713,0.2711,0.2693,0.2693,0.2693,0.2696,0.2696,0.2696,0,0,0.3087,0.3065,0.3047,0.3025,0.2991,0.2969,0.2965,0.2926,0.2911,0.288,0.2858,0.2835,0.2787,0.2762,0.2743,0.2733,0.2716,0.2724,0.273,0.2714,0.2714,0.2713,0.2709,0.2708,0.2723,0.2723,0.2723,0,0.3098,0.3065,0.3039,0.3017,0.2999,0.2974,0.2955,0.2933,0.2891,0.2878,0.2874,0.2814,0.2788,0.2752,0.275,0.2735,0.2728,0.2729,0.2716,0.2716,0.2715,0.271,0.2709,0.2724,0.2724,0.2724,0.2724,0,0.308,0.3057,0.3046,0.3008,0.2989,0.2968,0.2938,0.2921,0.2904,0.2882,0.2851,0.2819,0.2783,0.2773,0.2756,0.2735,0.2733,0.2723,0.2716,0.2716,0.2711,0.2709,0.2726,0.2725,0.2725,0.2725,0,0,0.3093,0.3043,0.3039,0.3022,0.2983,0.2963,0.294,0.2908,0.2894,0.2865,0.2844,0.2805,0.2795,0.2774,0.2753,0.274,0.2733,0.2731,0.2729,0.2732,0.2706,0.2714,0.2712,0.2722,0.2721,0.2721,0.2709,0,0.3087,0.3048,0.3024,0.2994,0.2972,0.2947,0.2927,0.29,0.2879,0.2855,0.283,0.2802,0.2793,0.2779,0.2764,0.2737,0.2727,0.2737,0.27,0.2699,0.271,0.271,0.2718,0.2708,0.2707,0.2707,0.2706,0,0.3074,0.3049,0.3017,0.2981,0.297,0.2953,0.2921,0.2899,0.2867,0.2852,0.2829,0.2809,0.2782,0.2777,0.2738,0.2746,0.2729,0.2713,0.2712,0.2707,0.2703,0.2704,0.2704,0.2703,0.2703,0.2703,0.2704,0,0.3087,0.3045,0.302,0.3006,0.2963,0.2951,0.2932,0.29,0.2882,0.2853,0.2841,0.2808,0.279,0.2765,0.2736,0.2735,0.27,0.2693,0.2685,0.2686,0.2678,0.2679,0.2675,0.2668,0.2668,0.2668,0.2668,0,0.3082,0.3064,0.3025,0.301,0.2988,0.296,0.2938,0.2916,0.2888,0.2867,0.2843,0.2823,0.2786,0.2761,0.2738,0.2709,0.2701,0.2687,0.268,0.2689,0.269,0.2677,0.2676,0.2668,0.2668,0.2668,0.2668,0,0.3093,0.3067,0.3038,0.3,0.299,0.2976,0.2942,0.2925,0.2902,0.2876,0.2867,0.2831,0.28,0.2769,0.2727,0.2711,0.2682,0.2674,0.2694,0.269,0.2684,0.2685,0.2671,0.2667,0.2664,0.2664,0.2664,0,0.3091,0.3077,0.3038,0.3023,0.3005,0.2981,0.2963,0.2934,0.2916,0.2878,0.2866,0.2834,0.2806,0.2758,0.2726,0.2693,0.2684,0.2681,0.2678,0.2687,0.2683,0.2684,0.2682,0.2682,0.2682,0.2682,0.2682,0,0.3091,0.3079,0.3055,0.3027,0.3007,0.2982,0.2956,0.2945,0.291,0.2891,0.286,0.2839,0.2797,0.2764,0.2728,0.2706,0.2688,0.2684,0.268,0.2688,0.27,0.2693,0.2696,0.2684,0.2684,0.2684,0.2684,0.2684,0.3095,0.3081,0.3052,0.3026,0.3004,0.298,0.2963,0.2939,0.2914,0.2879,0.2862,0.2831,0.2798,0.2748,0.2726,0.2699,0.2694,0.2689,0.2688,0.2687,0.2689,0.2705,0.2693,0.2692,0.2692,0.2692,0.2692,0,0.3094,0.3074,0.305,0.3016,0.2995,0.2983,0.2953,0.2936,0.291,0.2882,0.2856,0.282,0.2788,0.2755,0.2721,0.2706,0.2697,0.2698,0.2698,0.2693,0.2695,0.2702,0.2706,0.2706,0.2706,0.2706,0.2706,0.2706,0.309,0.3066,0.305,0.3014,0.2993,0.2964,0.2949,0.2926,0.2904,0.2866,0.284,0.2819,0.2788,0.2752,0.2722,0.2712,0.27,0.2704,0.2692,0.2694,0.2693,0.2692,0.2698,0.2702,0.2702,0.2692,0.2692,0.2692]},{"header":{"parameterUnit":"m.s-1","parameterCategory":1,"la1":30.2991,"la2":30.254,"lo1":-89.0895,"lo2":-89.0444,"dy":0.0017,"dx":0.0017,"nx":28,"ny":28,"refTime":"2026-02-16T09:00:00:Z","depth":0,"parameterNumber":3,"parameterNumberName":"V-component_of_WINDS"},"data":[0,0,0,0,0,0,0,0,0,0,0,0,0,0,0,0,0,0,0,0,0,0,0,0,0,0,0,0,0,0,0,0,0,0,0,0,0,0,0,0,0,0,0,0,0,0,0,0,0,0,0,0,0,0,0,0,0,0,0.3911,0.3913,0,0.4167,0.417,0.4173,0.4265,0.4264,0.4263,0.4262,0.4534,0.4542,0.455,0,0,0,0,0,0,0,0,0,0,0,0,0,0.3508,0.3515,0.391,0.3914,0.3917,0.4166,0.417,0.4174,0.4265,0.4264,0.4263,0.4262,0.4532,0.4541,0.4551,0,0,0,0,0,0,0,0,0,0,0,0,0,0.3715,0.3517,0.391,0.3992,0.4002,0.4166,0.417,0.4174,0.4266,0.4264,0.4263,0.4261,0.4529,0.454,0.4552,0.4655,0,0,0.459,0.4595,0,0,0,0,0,0,0,0,0.3704,0.373,0.3977,0.3987,0.3998,0.4182,0.4128,0.4336,0.4266,0.4166,0.4262,0.4261,0.4419,0.444,0.4492,0.4668,0.468,0.4591,0.4598,0.4603,0.4607,0,0,0,0,0,0,0,0.3689,0.372,0.4012,0.3981,0.3994,0.4019,0.4047,0.4168,0.4298,0.4175,0.4182,0.421,0.4425,0.448,0.4499,0.4684,0.459,0.4601,0.4609,0.4613,0.4958,0.4959,0,0,0,0,0,0,0.366,0.3707,0.4004,0.402,0.3844,0.4027,0.4059,0.4125,0.4296,0.4321,0.4211,0.4214,0.446,0.4484,0.4509,0.4641,0.4603,0.4615,0.4622,0.4956,0.4958,0.496,0,0,0,0,0,0,0.3651,0.3685,0.3994,0.3866,0.3907,0.4036,0.4109,0.4131,0.4186,0.4324,0.4348,0.4243,0.4459,0.4492,0.4618,0.4652,0.462,0.4631,0.4954,0.4956,0.4959,0.4905,0,0,0,0,0,0,0.3639,0.3681,0.372,0.3866,0.3913,0.4096,0.4112,0.4137,0.4205,0.4211,0.436,0.4384,0.4461,0.4599,0.463,0.4668,0.4641,0.4951,0.4955,0.4958,0.4905,0.4906,0.4907,0,0,0,0,0,0.3624,0.3697,0.3722,0.3757,0.3964,0.4098,0.4125,0.421,0.4208,0.4249,0.4337,0.4379,0.4642,0.4611,0.4646,0.4689,0.495,0.4954,0.4958,0.4904,0.4906,0.4907,0,0,0,0,0,0,0.3557,0.3718,0.3747,0.3869,0.3968,0.4113,0.4168,0.4208,0.4313,0.4315,0.4417,0.445,0.4568,0.4641,0.4604,0.4797,0.4799,0.481,0.4746,0.4748,0.4749,0.4731,0.4651,0,0,0,0,0,0.3555,0.3648,0.3785,0.3879,0.3927,0.4038,0.41,0.4155,0.4264,0.4308,0.4406,0.4512,0.4619,0.4687,0.4793,0.4915,0.495,0.4961,0.4962,0.4962,0.4972,0.5042,0.5049,0.4974,0.4974,0.4973,0,0,0.3556,0.3655,0.3708,0.3868,0.3952,0.4048,0.4074,0.4174,0.4247,0.4325,0.4449,0.4524,0.4649,0.4773,0.4833,0.4838,0.5,0.4968,0.4967,0.4977,0.5047,0.5054,0.5061,0.4976,0.4976,0.4975,0,0,0.3605,0.3688,0.3775,0.3857,0.3982,0.4055,0.4075,0.4213,0.4265,0.439,0.445,0.4539,0.4721,0.4807,0.4875,0.4953,0.4996,0.4984,0.4992,0.5059,0.5065,0.5071,0.51,0.5109,0.4993,0.4993,0.4993,0,0.359,0.3734,0.3816,0.3913,0.3982,0.4052,0.4143,0.4219,0.4373,0.4421,0.4422,0.465,0.474,0.4885,0.4903,0.4955,0.4984,0.4969,0.5056,0.5063,0.507,0.5099,0.5109,0.4991,0.4991,0.4991,0.4991,0,0.371,0.3808,0.3865,0.4007,0.4083,0.4176,0.4275,0.4342,0.439,0.4463,0.459,0.4698,0.4827,0.4865,0.4915,0.5018,0.5017,0.5036,0.504,0.5074,0.5103,0.5114,0.4988,0.4988,0.4989,0.499,0,0,0.3728,0.3912,0.3931,0.3996,0.4137,0.4217,0.4313,0.4435,0.4491,0.4594,0.4679,0.4829,0.4846,0.4923,0.4983,0.5041,0.5097,0.5054,0.5059,0.506,0.5218,0.5204,0.5215,0.5124,0.5127,0.5129,0.5208,0,0.3797,0.3969,0.4045,0.4184,0.4277,0.4342,0.4426,0.4523,0.4593,0.4684,0.4763,0.4868,0.4882,0.4929,0.4989,0.5077,0.513,0.5072,0.5207,0.5211,0.5176,0.5231,0.5217,0.5287,0.522,0.5222,0.5223,0,0.3902,0.4,0.4147,0.4275,0.4317,0.4391,0.4508,0.4593,0.4704,0.4751,0.4834,0.489,0.4996,0.499,0.5138,0.5096,0.5156,0.5207,0.5212,0.523,0.5221,0.5253,0.5311,0.5322,0.5242,0.524,0.5239,0,0.3902,0.4072,0.4182,0.4235,0.4387,0.4437,0.4503,0.4612,0.468,0.4783,0.4829,0.4944,0.5008,0.5096,0.5183,0.517,0.5323,0.5324,0.5368,0.5365,0.54,0.5397,0.5471,0.5433,0.5433,0.5433,0.5433,0,0.3973,0.4061,0.4184,0.4251,0.4352,0.4438,0.4536,0.4607,0.4703,0.4788,0.4852,0.493,0.5038,0.5131,0.5199,0.5312,0.534,0.5383,0.5401,0.5379,0.5373,0.5422,0.542,0.5436,0.5435,0.5435,0.5434,0,0.3992,0.4077,0.4202,0.4333,0.4368,0.4436,0.455,0.462,0.469,0.4797,0.4827,0.494,0.5052,0.5145,0.5294,0.534,0.5458,0.5477,0.5419,0.5429,0.5468,0.5464,0.5578,0.5598,0.5543,0.5544,0.5544,0,0.4033,0.4102,0.4238,0.4297,0.4361,0.4457,0.4525,0.4612,0.4681,0.481,0.4865,0.498,0.5078,0.5254,0.5352,0.5465,0.549,0.5521,0.5508,0.5483,0.5493,0.5488,0.5496,0.5524,0.5524,0.5524,0.5524,0,0.4097,0.4135,0.4229,0.4337,0.4416,0.4507,0.4599,0.4645,0.4749,0.4824,0.4937,0.5012,0.5161,0.5276,0.5399,0.547,0.5516,0.5526,0.5543,0.5523,0.5487,0.5509,0.5425,0.5525,0.5525,0.5524,0.5524,0.5524,0.4131,0.4194,0.4299,0.4402,0.4479,0.4563,0.4634,0.4712,0.4807,0.4933,0.4978,0.5095,0.5204,0.5373,0.5444,0.5538,0.5544,0.5567,0.5574,0.5579,0.5577,0.5469,0.5561,0.5561,0.5561,0.5561,0.5561,0,0.42,0.427,0.4362,0.4487,0.4568,0.4597,0.4701,0.4768,0.4868,0.4963,0.5056,0.5186,0.5297,0.5401,0.5517,0.5572,0.5596,0.56,0.5599,0.5615,0.5564,0.5539,0.5579,0.5579,0.5579,0.5579,0.5579,0.5579,0.4246,0.4354,0.4404,0.4552,0.4622,0.4733,0.479,0.4868,0.4945,0.5085,0.5176,0.5241,0.5341,0.5465,0.5568,0.5596,0.5637,0.5636,0.567,0.5621,0.5619,0.5616,0.5593,0.5644,0.5644,0.5714,0.5714,0.5715]}]]